St. Paul Lake Elmo, MN

12:57 PM CDT on July 28, 2017 (GMT -0500)
St. Paul Lake Elmo

Weather History for K21D - March, 2014

Change the Weather History Date:

Saturday, March 29, 2014

  Actual Average (KSTP) Record (KSTP)
Temperature  
Mean Temperature 30 °F -  
Max Temperature 41 °F 45 °F 70 °F (2005)
Min Temperature 19 °F 29 °F 21 °F (2009)
Degree Days  
Heating Degree Days 35    
Moisture  
Dew Point 21 °F    
Average Humidity 67    
Maximum Humidity 93    
Minimum Humidity 38    
Precipitation  
Precipitation 0.00 in - - ()
Sea Level Pressure  
Sea Level Pressure 30.22 in    
Wind  
Wind Speed 3 mph (South)    
Max Wind Speed 13 mph    
Max Gust Speed -    
Visibility 10 miles    
Events      
Averages and records for this station are not official NWS values.
T = Trace of Precipitation, MM = Missing Value Source: NWS Daily Summary

Daily Weather History Graph

Daily Weather History Graph

Search for Another Location

Airport or City:

Trip Planner

Search our weather history database for the weather conditions in past years. The results will help you decide how hot, cold, wet, or windy it might be!

Date:

Astronomy

Mar. 29, 2014 Rise Set
Actual Time 6:57 AM CDT 7:35 PM CDT
Civil Twilight 6:28 AM CDT 8:05 PM CDT
Nautical Twilight 5:53 AM CDT 8:40 PM CDT
Astronomical Twilight 5:16 AM CDT 9:16 PM CDT
Moon 6:09 AM CDT (3/29) 6:39 PM CDT (3/29)
Length of Visible Light 13h 36m
Length of Day
12h 37m
Waning Crescent, 2% of the Moon is Illuminated
Mar 29
Waning Crescent
Mar 30
New
Apr 7
First Quarter
Apr 15
Full
Apr 22
Last Quarter

Hourly Weather History & Observations

Time (CDT) Temp. Windchill Dew Point Humidity Pressure Visibility Wind Dir Wind Speed Gust Speed Precip Events Conditions
12:11 AM 28.4 °F - 14.0 °F 55% 30.25 in 10.0 mi Calm Calm - N/A   Clear
12:31 AM 28.4 °F 24.6 °F 15.8 °F 59% 30.25 in 10.0 mi NNW 3.5 mph - N/A   Scattered Clouds
12:51 AM 26.6 °F 22.6 °F 14.0 °F 59% 30.25 in 10.0 mi NNW 3.5 mph - N/A   Scattered Clouds
1:11 AM 26.6 °F - 19.4 °F 74% 30.25 in 10.0 mi Calm Calm - N/A   Clear
1:31 AM 23.0 °F - 21.2 °F 93% 30.25 in 10.0 mi Calm Calm - N/A   Clear
1:51 AM 24.8 °F - 19.4 °F 80% 30.25 in 10.0 mi Calm Calm - N/A   Clear
2:11 AM 24.8 °F - 21.2 °F 86% 30.25 in 10.0 mi Calm Calm - N/A   Clear
2:31 AM 23.0 °F - 19.4 °F 86% 30.25 in 10.0 mi Calm Calm - N/A   Clear
2:51 AM 23.0 °F - 19.4 °F 86% 30.26 in 10.0 mi Calm Calm - N/A   Clear
3:10 AM 23.0 °F - 19.4 °F 86% 30.25 in 10.0 mi Calm Calm - N/A   Clear
3:31 AM 21.2 °F - 17.6 °F 86% 30.25 in 10.0 mi Calm Calm - N/A   Clear
3:51 AM 21.2 °F - 17.6 °F 86% 30.25 in 10.0 mi Calm Calm - N/A   Clear
4:10 AM 21.2 °F - 17.6 °F 86% 30.26 in 10.0 mi Calm Calm - N/A   Clear
4:31 AM 21.2 °F - 19.4 °F 93% 30.26 in 10.0 mi Calm Calm - N/A   Clear
4:50 AM 21.2 °F - 17.6 °F 86% 30.27 in 10.0 mi Calm Calm - N/A   Clear
5:11 AM 21.2 °F - 17.6 °F 86% 30.27 in 10.0 mi Calm Calm - N/A   Clear
5:31 AM 21.2 °F - 17.6 °F 86% 30.27 in 10.0 mi Calm Calm - N/A   Clear
5:50 AM 19.4 °F - 17.6 °F 93% 30.27 in 10.0 mi Calm Calm - N/A   Clear
6:11 AM 21.2 °F - 17.6 °F 86% 30.27 in 10.0 mi Calm Calm - N/A   Clear
6:31 AM 19.4 °F - 15.8 °F 86% 30.28 in 10.0 mi Calm Calm - N/A   Clear
6:51 AM 19.4 °F - 17.6 °F 93% 30.28 in 10.0 mi Calm Calm - N/A   Clear
7:11 AM 21.2 °F - 17.6 °F 86% 30.28 in 10.0 mi Calm Calm - N/A   Clear
7:31 AM 19.4 °F - 17.6 °F 93% 30.28 in 10.0 mi Calm Calm - N/A   Clear
7:51 AM 21.2 °F - 17.6 °F 86% 30.28 in 10.0 mi Calm Calm - N/A   Clear
8:11 AM 21.2 °F - 19.4 °F 93% 30.29 in 10.0 mi Calm Calm - N/A   Clear
8:31 AM 23.0 °F - 19.4 °F 86% 30.28 in 10.0 mi Calm Calm - N/A   Clear
8:51 AM 26.6 °F - 17.6 °F 69% 30.28 in 10.0 mi Calm Calm - N/A   Clear
9:11 AM 26.6 °F - 19.4 °F 74% 30.28 in 10.0 mi Calm Calm - N/A   Clear
9:31 AM 28.4 °F - 19.4 °F 69% 30.28 in 10.0 mi Calm Calm - N/A   Clear
9:51 AM 32.0 °F - 15.8 °F 51% 30.28 in 10.0 mi Calm Calm - N/A   Clear
10:11 AM 32.0 °F - 17.6 °F 55% 30.28 in 10.0 mi Calm Calm - N/A   Clear
10:31 AM 33.8 °F - 17.6 °F 52% 30.28 in 10.0 mi Calm Calm - N/A   Clear
10:51 AM 33.8 °F - 17.6 °F 52% 30.28 in 10.0 mi Calm Calm - N/A   Clear
11:11 AM 33.8 °F - 17.6 °F 52% 30.28 in 10.0 mi Calm Calm - N/A   Clear
11:30 AM 33.8 °F - 15.8 °F 48% 30.27 in 10.0 mi Calm Calm - N/A   Clear
11:51 AM 35.6 °F - 15.8 °F 44% 30.27 in 10.0 mi Calm Calm - N/A   Clear
12:11 PM 35.6 °F 32.8 °F 17.6 °F 48% 30.27 in 10.0 mi South 3.5 mph - N/A   Clear
12:30 PM 35.6 °F 31.7 °F 15.8 °F 44% 30.27 in 10.0 mi South 4.6 mph - N/A   Clear
12:51 PM 35.6 °F 31.7 °F 17.6 °F 48% 30.26 in 10.0 mi SW 4.6 mph - N/A   Clear
1:11 PM 35.6 °F 29.2 °F 19.4 °F 52% 30.25 in 10.0 mi SW 8.1 mph - N/A   Clear
1:31 PM 37.4 °F 32.8 °F 15.8 °F 41% 30.24 in 10.0 mi SSW 5.8 mph - N/A   Clear
1:51 PM 37.4 °F 31.4 °F 14.0 °F 38% 30.23 in 10.0 mi South 8.1 mph - N/A   Clear
2:11 PM 37.4 °F 30.3 °F 15.8 °F 41% 30.23 in 10.0 mi South 10.4 mph - N/A   Clear
2:31 PM 37.4 °F 31.4 °F 19.4 °F 48% 30.23 in 10.0 mi South 8.1 mph - N/A   Clear
2:51 PM 37.4 °F 30.8 °F 19.4 °F 48% 30.22 in 10.0 mi SSE 9.2 mph - N/A   Clear
3:10 PM 37.4 °F 30.3 °F 19.4 °F 48% 30.22 in 10.0 mi South 10.4 mph - N/A   Clear
3:31 PM 39.2 °F 32.5 °F 21.2 °F 49% 30.20 in 10.0 mi South 10.4 mph - N/A   Clear
3:51 PM 39.2 °F 33.0 °F 21.2 °F 49% 30.20 in 10.0 mi South 9.2 mph - N/A   Clear
4:11 PM 39.2 °F 33.0 °F 23.0 °F 52% 30.20 in 10.0 mi South 9.2 mph - N/A   Clear
4:31 PM 39.2 °F 32.5 °F 23.0 °F 52% 30.19 in 10.0 mi South 10.4 mph - N/A   Clear
4:51 PM 39.2 °F 33.0 °F 23.0 °F 52% 30.18 in 10.0 mi South 9.2 mph - N/A   Clear
5:10 PM 41.0 °F 34.3 °F 24.8 °F 53% 30.17 in 10.0 mi South 11.5 mph - N/A   Clear
5:31 PM 41.0 °F 34.7 °F 24.8 °F 53% 30.16 in 10.0 mi South 10.4 mph - N/A   Clear
5:51 PM 41.0 °F 35.2 °F 23.0 °F 49% 30.15 in 10.0 mi South 9.2 mph - N/A   Clear
6:10 PM 41.0 °F 33.9 °F 23.0 °F 49% 30.14 in 10.0 mi South 12.7 mph - N/A   Clear
6:31 PM 41.0 °F 35.2 °F 26.6 °F 57% 30.14 in 10.0 mi South 9.2 mph - N/A   Clear
6:51 PM 39.2 °F 33.0 °F 24.8 °F 56% 30.15 in 10.0 mi South 9.2 mph - N/A   Clear
7:10 PM 37.4 °F 32.1 °F 26.6 °F 65% 30.13 in 10.0 mi South 6.9 mph - N/A   Clear
7:31 PM 35.6 °F 31.7 °F 26.6 °F 70% 30.13 in 10.0 mi SSE 4.6 mph - N/A   Clear
7:51 PM 35.6 °F - 26.6 °F 70% 30.13 in 10.0 mi Calm Calm - N/A   Clear
8:10 PM 35.6 °F 32.8 °F 26.6 °F 70% 30.13 in 10.0 mi SSE 3.5 mph - N/A   Clear
8:31 PM 35.6 °F 30.7 °F 26.6 °F 70% 30.12 in 10.0 mi SE 5.8 mph - N/A   Clear
8:50 PM 35.6 °F 30.7 °F 26.6 °F 70% 30.12 in 10.0 mi ESE 5.8 mph - N/A   Clear
9:11 PM 35.6 °F 29.9 °F 26.6 °F 70% 30.11 in 10.0 mi SE 6.9 mph - N/A   Clear
9:31 PM 35.6 °F 29.9 °F 26.6 °F 70% 30.11 in 10.0 mi SSE 6.9 mph - N/A   Clear
9:51 PM 35.6 °F 29.2 °F 26.6 °F 70% 30.10 in 10.0 mi SSE 8.1 mph - N/A   Clear
10:11 PM 35.6 °F 28.0 °F 26.6 °F 70% 30.10 in 10.0 mi SSE 10.4 mph - N/A   Clear
10:31 PM 35.6 °F 27.1 °F 28.4 °F 75% 30.11 in 10.0 mi SSE 12.7 mph - N/A   Clear
10:51 PM 35.6 °F 28.0 °F 28.4 °F 75% 30.11 in 10.0 mi SSE 10.4 mph - N/A   Clear
11:11 PM 35.6 °F 28.6 °F 28.4 °F 75% 30.09 in 10.0 mi SSE 9.2 mph - N/A   Clear
11:31 PM 35.6 °F 28.6 °F 28.4 °F 75% 30.10 in 10.0 mi SSE 9.2 mph - N/A   Clear
11:51 PM 35.6 °F 28.6 °F 28.4 °F 75% 30.09 in 10.0 mi South 9.2 mph - N/A   Clear